RA3412 UUML-UUEE

Flight info

Callsign RA3412
Flight time 0h 36m
Altitude 8000
Route BW304 D131I BW123 D331J BW124 DD145 BW125 RUGEL BESTA D345B D176H DIMES
Aircraft DA42/L-SBDGRY/S

Departure

Time 2026-04-30 11:16
Airport Severka Airfield (UUML)

Arrival

Time 2026-04-30 11:52
Airport Sheremetyevo International Airport (UUEE)
Time Latitude Longitude Altitude Speed Heading
2026-04-30 10:49 55.20583 38.67481 426 ft 0 kts 180°
2026-04-30 11:13 55.20581 38.67490 426 ft 2 kts 50°
2026-04-30 11:13 55.20600 38.67483 426 ft 3 kts 352°
2026-04-30 11:13 55.20606 38.67490 426 ft 2 kts 72°
2026-04-30 11:13 55.20581 38.67527 424 ft 8 kts 159°
2026-04-30 11:14 55.20532 38.67543 423 ft 6 kts 193°
2026-04-30 11:14 55.20513 38.67511 428 ft 4 kts 128°
2026-04-30 11:14 55.20514 38.67522 428 ft 0 kts 56°
2026-04-30 11:15 55.20517 38.67529 428 ft 9 kts 54°
2026-04-30 11:15 55.20685 38.67983 425 ft 74 kts 58°
2026-04-30 11:15 55.21004 38.68867 593 ft 91 kts 55°
2026-04-30 11:15 55.21348 38.69826 854 ft 94 kts 56°
2026-04-30 11:16 55.21639 38.70845 1103 ft 96 kts 84°
2026-04-30 11:16 55.21283 38.71860 1270 ft 107 kts 144°
2026-04-30 11:16 55.20565 38.72267 1446 ft 112 kts 179°
2026-04-30 11:16 55.19817 38.71917 1666 ft 113 kts 213°
2026-04-30 11:17 55.19292 38.70895 1805 ft 121 kts 245°
2026-04-30 11:17 55.19121 38.69372 1801 ft 132 kts 275°
2026-04-30 11:17 55.19395 38.67863 1800 ft 132 kts 303°
2026-04-30 11:17 55.20010 38.66703 1809 ft 131 kts 316°
2026-04-30 11:18 55.20729 38.65738 1798 ft 132 kts 337°
2026-04-30 11:18 55.22237 38.64135 1818 ft 131 kts 314°
2026-04-30 11:18 55.22951 38.63154 1798 ft 132 kts 336°
2026-04-30 11:19 55.23848 38.62886 1793 ft 132 kts
2026-04-30 11:19 55.24752 38.63078 1787 ft 131 kts 350°
2026-04-30 11:19 55.25491 38.62233 1791 ft 131 kts 304°
2026-04-30 11:19 55.25636 38.60696 1835 ft 129 kts 256°
2026-04-30 11:20 55.25105 38.59455 2004 ft 132 kts 219°
2026-04-30 11:20 55.24393 38.58407 2153 ft 135 kts 229°
2026-04-30 11:20 55.23904 38.57021 2305 ft 135 kts 253°
2026-04-30 11:20 55.23667 38.55407 2463 ft 140 kts 260°
2026-04-30 11:21 55.23472 38.53696 2607 ft 145 kts 261°
2026-04-30 11:21 55.23280 38.51949 2761 ft 147 kts 262°
2026-04-30 11:21 55.23093 38.50242 2908 ft 143 kts 262°
2026-04-30 11:21 55.22903 38.48538 2987 ft 145 kts 262°
2026-04-30 11:22 55.22712 38.46795 2987 ft 146 kts 262°
2026-04-30 11:22 55.22518 38.45058 2986 ft 145 kts 262°
2026-04-30 11:22 55.22322 38.43312 2992 ft 147 kts 262°
2026-04-30 11:22 55.22126 38.41555 2988 ft 147 kts 262°
2026-04-30 11:23 55.22120 38.39777 2988 ft 147 kts 285°
2026-04-30 11:23 55.22555 38.38211 2983 ft 139 kts 310°
2026-04-30 11:23 55.23985 38.35835 2988 ft 146 kts 319°
2026-04-30 11:24 55.24729 38.34647 2987 ft 144 kts 318°
2026-04-30 11:24 55.25458 38.33466 3021 ft 140 kts 318°
2026-04-30 11:24 55.26149 38.32344 3091 ft 131 kts 318°
2026-04-30 11:25 55.27509 38.30143 3246 ft 140 kts 318°
2026-04-30 11:25 55.28231 38.28979 3287 ft 143 kts 319°
2026-04-30 11:25 55.29703 38.26595 3284 ft 143 kts 318°
2026-04-30 11:26 55.31077 38.24374 3288 ft 132 kts 318°
2026-04-30 11:26 55.31756 38.23273 3290 ft 133 kts 318°
2026-04-30 11:26 55.32431 38.22176 3295 ft 135 kts 318°
2026-04-30 11:27 55.33127 38.21043 3291 ft 137 kts 318°
2026-04-30 11:27 55.33825 38.19904 3294 ft 137 kts 318°
2026-04-30 11:27 55.34530 38.18755 3299 ft 139 kts 318°
2026-04-30 11:27 55.35236 38.17606 3292 ft 138 kts 318°
2026-04-30 11:28 55.36636 38.15329 3299 ft 137 kts 318°
2026-04-30 11:28 55.37335 38.14186 3294 ft 137 kts 318°
2026-04-30 11:28 55.38035 38.13047 3290 ft 137 kts 319°
2026-04-30 11:29 55.38735 38.11906 3293 ft 138 kts 318°
2026-04-30 11:29 55.39441 38.10746 3292 ft 139 kts 318°
2026-04-30 11:29 55.40852 38.08446 3291 ft 137 kts 318°
2026-04-30 11:30 55.42243 38.06171 3299 ft 137 kts 319°
2026-04-30 11:30 55.42947 38.05020 3300 ft 139 kts 318°
2026-04-30 11:30 55.43654 38.03860 3291 ft 138 kts 319°
2026-04-30 11:31 55.44356 38.02714 3297 ft 137 kts 319°
2026-04-30 11:31 55.45053 38.01573 3292 ft 137 kts 318°
2026-04-30 11:31 55.45746 38.00433 3292 ft 136 kts 318°
2026-04-30 11:31 55.46438 37.99297 3292 ft 136 kts 318°
2026-04-30 11:32 55.47127 37.98165 3294 ft 135 kts 319°
2026-04-30 11:32 55.47816 37.97037 3295 ft 136 kts 318°
2026-04-30 11:32 55.48501 37.95914 3294 ft 136 kts 319°
2026-04-30 11:33 55.50009 37.93901 3294 ft 137 kts 330°
2026-04-30 11:33 55.50825 37.93056 3291 ft 133 kts 330°
2026-04-30 11:33 55.51584 37.92272 3286 ft 120 kts 330°
2026-04-30 11:33 55.52328 37.91499 3292 ft 128 kts 330°
2026-04-30 11:34 55.53098 37.90698 3290 ft 126 kts 330°
2026-04-30 11:34 55.53850 37.89917 3292 ft 128 kts 330°
2026-04-30 11:34 55.54633 37.89103 3297 ft 133 kts 330°
2026-04-30 11:34 55.55445 37.88257 3299 ft 137 kts 330°
2026-04-30 11:35 55.56277 37.87393 3297 ft 138 kts 330°
2026-04-30 11:35 55.57099 37.86536 3293 ft 136 kts 330°
2026-04-30 11:35 55.57914 37.85686 3292 ft 135 kts 330°
2026-04-30 11:35 55.58718 37.84852 3293 ft 134 kts 330°
2026-04-30 11:36 55.59513 37.84019 3289 ft 131 kts 329°
2026-04-30 11:36 55.60295 37.83207 3297 ft 130 kts 333°
2026-04-30 11:36 55.61152 37.82794 3286 ft 127 kts 358°
2026-04-30 11:36 55.62027 37.82934 3296 ft 126 kts
2026-04-30 11:37 55.62897 37.83134 3296 ft 124 kts
2026-04-30 11:37 55.63768 37.83319 3292 ft 129 kts
2026-04-30 11:37 55.64669 37.83525 3292 ft 131 kts
2026-04-30 11:37 55.65581 37.83658 3296 ft 135 kts
2026-04-30 11:38 55.66542 37.83715 3288 ft 141 kts 360°
2026-04-30 11:38 55.67538 37.83745 3231 ft 145 kts 360°
2026-04-30 11:38 55.68505 37.83811 3303 ft 137 kts
2026-04-30 11:38 55.69468 37.83892 3286 ft 138 kts
2026-04-30 11:39 55.70427 37.83954 3293 ft 140 kts
2026-04-30 11:39 55.71388 37.84009 3299 ft 140 kts
2026-04-30 11:39 55.72356 37.84057 3294 ft 137 kts
2026-04-30 11:39 55.73066 37.83265 3304 ft 139 kts 285°
2026-04-30 11:40 55.73479 37.81752 3280 ft 138 kts 321°
2026-04-30 11:40 55.74360 37.81300 3299 ft 135 kts
2026-04-30 11:40 55.75184 37.82127 3305 ft 141 kts 40°
2026-04-30 11:40 55.75915 37.83275 3298 ft 140 kts 33°
2026-04-30 11:41 55.76778 37.84050 3287 ft 139 kts
2026-04-30 11:41 55.77751 37.84108 3300 ft 142 kts 357°
2026-04-30 11:41 55.78744 37.83976 3282 ft 143 kts 354°
2026-04-30 11:41 55.79715 37.83813 3290 ft 138 kts 354°
2026-04-30 11:42 55.80663 37.83657 3302 ft 136 kts 351°
2026-04-30 11:42 55.81627 37.83492 3296 ft 142 kts 355°
2026-04-30 11:42 55.82598 37.83107 3291 ft 146 kts 334°
2026-04-30 11:42 55.83389 37.81997 3295 ft 147 kts 313°
2026-04-30 11:43 55.84091 37.80649 3301 ft 150 kts 313°
2026-04-30 11:43 55.84801 37.79299 3300 ft 145 kts 314°
2026-04-30 11:43 55.85476 37.78007 3299 ft 140 kts 314°
2026-04-30 11:43 55.86125 37.76753 3298 ft 136 kts 314°
2026-04-30 11:44 55.86758 37.75537 3293 ft 132 kts 315°
2026-04-30 11:44 55.87378 37.74362 3291 ft 129 kts 315°
2026-04-30 11:44 55.87985 37.73205 3287 ft 126 kts 315°
2026-04-30 11:44 55.88574 37.72089 3287 ft 120 kts 315°
2026-04-30 11:45 55.89130 37.71036 3289 ft 113 kts 316°
2026-04-30 11:45 55.89774 37.70320 3290 ft 107 kts 342°
2026-04-30 11:45 55.90223 37.69979 3279 ft 106 kts 324°
2026-04-30 11:45 55.90953 37.68857 3254 ft 103 kts 321°
2026-04-30 11:46 55.91559 37.67923 3120 ft 125 kts 320°
2026-04-30 11:46 55.92258 37.66860 2949 ft 138 kts 321°
2026-04-30 11:46 55.92999 37.65746 2767 ft 138 kts 321°
2026-04-30 11:46 55.93716 37.64666 2594 ft 135 kts 320°
2026-04-30 11:47 55.94424 37.63597 2418 ft 132 kts 320°
2026-04-30 11:47 55.95080 37.62613 2223 ft 111 kts 319°
2026-04-30 11:47 55.95612 37.61815 2036 ft 92 kts 318°
2026-04-30 11:47 55.96117 37.61045 2010 ft 108 kts 317°
2026-04-30 11:48 55.96708 37.60153 1999 ft 112 kts 317°
2026-04-30 11:48 55.97306 37.59256 1998 ft 112 kts 317°
2026-04-30 11:48 55.97906 37.58353 2000 ft 112 kts 317°
2026-04-30 11:48 55.98508 37.57444 1997 ft 117 kts 316°
2026-04-30 11:49 55.98983 37.56292 1985 ft 115 kts 292°
2026-04-30 11:49 55.99108 37.54901 1984 ft 114 kts 267°
2026-04-30 11:49 55.98898 37.53523 1993 ft 116 kts 255°
2026-04-30 11:49 55.98734 37.52129 1878 ft 114 kts 258°
2026-04-30 11:50 55.98569 37.51263 1804 ft 105 kts 252°
2026-04-30 11:50 55.98350 37.49738 1565 ft 94 kts 257°
2026-04-30 11:50 55.98172 37.48632 1337 ft 93 kts 257°
2026-04-30 11:50 55.98036 37.47525 1113 ft 91 kts 257°
2026-04-30 11:51 55.97875 37.46438 937 ft 90 kts 256°
2026-04-30 11:51 55.97718 37.45392 806 ft 87 kts 257°
2026-04-30 11:51 55.97564 37.44344 695 ft 88 kts 256°
2026-04-30 11:51 55.97409 37.43302 645 ft 82 kts 256°
2026-04-30 11:52 55.97316 37.42672 637 ft 69 kts 257°
2026-04-30 11:52 55.97222 37.42038 635 ft 41 kts 256°
2026-04-30 11:52 55.97155 37.41747 635 ft 13 kts 176°
2026-04-30 11:52 55.97109 37.41869 637 ft 13 kts 106°
2026-04-30 11:53 55.97079 37.42047 634 ft 13 kts 117°
2026-04-30 11:53 55.97021 37.42064 634 ft 10 kts 227°
2026-04-30 11:53 55.96999 37.41957 639 ft 9 kts 248°
2026-04-30 11:53 55.96957 37.41918 633 ft 0 kts 164°
2026-04-30 11:54 55.96907 37.41897 638 ft 15 kts 236°
2026-04-30 11:54 55.96868 37.41629 639 ft 22 kts 259°
2026-04-30 11:54 55.96831 37.41391 633 ft 25 kts 253°
2026-04-30 11:55 55.96774 37.41018 633 ft 35 kts 255°
2026-04-30 11:55 55.96719 37.40645 635 ft 31 kts 256°
2026-04-30 11:55 55.96668 37.40318 637 ft 25 kts 256°
2026-04-30 11:55 55.96632 37.40073 635 ft 12 kts 256°
2026-04-30 11:56 55.96592 37.39888 637 ft 3 kts 225°
2026-04-30 11:56 55.96567 37.39850 639 ft 10 kts 124°
2026-04-30 11:56 55.96567 37.39861 633 ft 0 kts 56°